Snowfall_Accumulation
0.0 0.0 0.0 0.0 0.0 0.0 0.0 0.0 0.0 0.0 0.0 0.0 0.0 0.0 0.0 0.0 0.0 0.0 0.0 0.0 0.0 0.0 0.0 0.0 0.0 0.0 0.0 0.0 0.0 0.0 0.0 0.0 0.0 0.0 0.0 0.0 0.0 0.0 0.0 0.0 0.0 0.0 0.0 0.0
0.0 0.0 0.0 0.0 0.0 0.0 0.0 0.0 0.0 0.0 0.0 0.0 0.0 0.0 0.0 0.0 0.0 0.0 0.0 0.0 0.0 0.0 0.0 0.0 0.0 0.0 0.0 0.0 0.0 0.0 0.0 0.0 0.0 0.0 0.0 0.0 0.0 0.0 0.0 0.0 0.0 0.0 0.0 0.0
0.0 0.0 0.0 0.0 0.0 0.0 0.0 0.0 0.0 0.0 0.0 0.0 0.0 0.0 0.0 0.0 0.0 0.0 0.0 0.0 0.0 0.0 0.0 0.0 0.0 0.0 0.0 0.0 0.0 0.0 0.0 0.0 0.0 0.0 0.0 0.0 0.0 0.0 0.0 0.0 0.0 0.0 0.0 0.0
0.0 0.0 0.0 0.0 0.0 0.0 0.0 0.0 0.0 0.0 0.0 0.0 0.0 0.0 0.0 0.0 0.0 0.0 0.0 0.0 0.0 0.0 0.0 0.0 0.0 0.0 0.0 0.0 0.0 0.0 0.0 0.0 0.0 0.0 0.0 0.0 0.0 0.0 0.0 0.0 0.0 0.0 0.0 0.0
0.0 0.0 0.0 0.0 0.0 0.0 0.0 0.0 0.0 0.0 0.0 0.0 0.0 0.0 0.0 0.0 0.0 0.0 0.0 0.0 0.0 0.0 0.0 0.0 0.0 0.0 0.0 0.0 0.0 0.0 0.0 0.0 0.0 0.0 0.0 0.0 0.0 0.0 0.0 0.0 0.0 0.0 0.0 0.0
0.0 0.0 0.0 0.0 0.0 0.0 0.0 0.0 0.0 0.0 0.0 0.1 0.0 0.0 0.0 0.0 0.0 0.0 0.0 0.0 0.0 0.0 0.0 0.0 0.0 0.0 0.0 0.0 0.0 0.0 0.0 0.0 0.0 0.0 0.0 0.0 0.0 0.0 0.0 0.0 0.0 0.0 0.0 0.0
0.0 0.0 0.0 0.0 0.0 0.0 0.0 0.0 0.1 0.2 0.6 0.2 0.0 0.0 0.0 0.0 0.0 0.0 0.0 0.0 0.0 0.0 0.0 0.0 0.0 0.0 0.0 0.0 0.0 0.0 0.0 0.0 0.0 0.0 0.0 0.0 0.0 0.0 0.0 0.0 0.0 0.0 0.0 0.0
0.0 0.0 0.0 0.0 0.0 0.0 0.0 0.0 0.2 1.2 0.7 0.2 0.0 0.1 0.0 0.0 0.0 0.0 0.0 0.0 0.0 0.0 0.0 0.0 0.0 0.0 0.0 0.0 0.0 0.0 0.0 0.0 0.0 0.0 0.0 0.0 0.0 0.0 0.0 0.0 0.0 0.0 0.0 0.0
0.0 0.0 0.0 0.0 0.0 0.0 0.0 0.0 0.0 0.1 2.3 1.2 0.0 0.0 0.0 0.0 0.0 0.0 0.0 0.0 0.0 0.0 0.0 0.0 0.0 0.0 0.0 0.0 0.0 0.0 0.0 0.0 0.0 0.0 0.0 0.0 0.0 0.0 0.0 0.0 0.0 0.0 0.0 0.0
0.0 0.1 0.0 0.0 0.0 0.0 0.0 0.0 0.1 0.1 3.5 2.0 0.0 0.0 0.0 0.0 0.0 0.0 0.0 0.0 0.0 0.0 0.0 0.0 0.0 0.0 0.0 0.0 0.0 0.0 0.0 0.0 0.0 0.0 0.0 0.0 0.0 0.0 0.0 0.0 0.0 0.0 0.0 0.0
0.0 0.1 0.0 0.0 0.0 0.0 0.0 0.0 0.0 0.0 0.5 1.4 1.1 0.0 0.0 0.0 0.0 0.0 0.0 0.0 0.0 0.0 0.0 0.0 0.0 0.0 0.0 0.0 0.0 0.0 0.0 0.0 0.0 0.0 0.0 0.0 0.0 0.0 0.0 0.0 0.0 0.0 0.0 0.0
0.0 0.0 0.8 0.0 0.0 0.0 0.0 0.0 0.0 0.2 0.1 0.2 0.4 0.3 0.0 0.0 0.0 0.0 0.0 0.0 0.0 0.0 0.0 0.0 0.0 0.0 0.0 0.0 0.0 0.0 0.0 0.0 0.0 0.0 0.0 0.0 0.0 0.0 0.0 0.0 0.0 0.0 0.0 0.0
0.0 0.9 3.6 0.9 0.1 0.0 0.0 0.0 0.0 0.0 0.2 0.8 3.2 0.5 0.0 0.0 0.0 0.0 0.0 0.0 0.0 0.0 0.0 0.0 0.0 0.0 0.0 0.0 0.0 0.0 0.0 0.0 0.0 0.0 0.0 0.0 0.0 0.0 0.0 0.0 0.0 0.0 0.0 0.0
nan 0.6 0.2 0.6 0.1 0.0 0.1 0.0 0.0 0.0 3.0 0.5 0.4 0.0 0.0 0.0 0.0 0.0 0.0 0.0 0.0 0.0 0.0 0.0 0.0 0.0 0.0 0.0 0.0 0.0 0.0 0.0 0.0 0.0 0.0 0.0 0.0 0.0 0.0 0.0 0.0 0.0 0.0 0.0
0.0 4.8 0.2 0.0 0.1 0.1 0.3 0.1 0.0 0.0 0.0 0.6 0.0 0.0 0.0 0.0 0.0 0.0 0.0 0.0 0.0 0.0 0.0 0.0 0.0 0.0 0.0 0.0 0.0 0.0 0.0 0.0 0.0 0.0 0.0 0.0 0.0 0.0 0.0 0.0 0.0 0.0 0.0 0.0
0.0 6.6 0.5 3.4 0.2 0.1 1.2 0.0 0.0 0.0 0.0 0.0 0.0 0.0 0.0 0.0 0.0 0.0 0.0 0.0 0.0 0.0 0.0 0.0 0.0 0.0 0.0 0.0 0.0 0.0 0.0 0.0 0.0 0.0 0.0 0.0 0.0 0.1 0.1 0.1 0.1 0.1 0.1 0.1
0.3 2.5 7.0 15.4 0.5 0.9 11.0 0.1 0.0 0.0 0.0 0.0 0.1 0.0 0.0 0.0 0.0 0.0 0.0 0.0 0.0 0.0 0.0 0.0 0.0 0.0 0.0 0.0 0.0 0.0 0.0 0.0 0.0 0.0 0.1 0.1 0.1 0.2 0.1 0.1 0.2 0.1 0.1 0.1
3.5 4.6 5.2 18.5 8.6 39.7 1.5 0.0 0.0 0.0 0.0 0.0 0.0 0.0 0.0 0.0 0.0 0.0 0.0 0.0 0.0 0.0 0.0 0.0 0.0 0.0 0.0 0.0 0.0 0.0 0.0 0.0 0.1 0.2 0.4 0.3 0.2 0.8 0.1 0.2 0.2 0.2 0.2 0.3
0.0 0.8 17.0 36.5 20.7 0.9 0.0 0.0 0.0 0.0 0.0 0.0 0.0 0.0 0.0 0.0 0.0 0.0 0.0 0.0 0.0 0.0 0.0 0.0 0.0 0.0 0.0 0.0 0.0 0.1 0.1 0.1 0.1 0.1 0.2 0.3 0.6 1.5 0.4 2.1 0.3 0.4 1.1 0.8
0.3 0.1 2.6 24.7 28.3 23.4 0.1 0.1 0.0 0.0 1.5 0.7 0.1 0.0 0.0 0.0 0.8 0.0 0.0 0.0 0.0 0.0 0.0 0.0 0.0 0.0 0.0 0.0 0.1 0.1 0.2 0.2 0.2 0.1 0.1 0.2 0.6 3.1 2.5 0.7 1.6 1.6 1.9 2.3
7.6 14.2 24.9 18.5 26.5 8.7 0.1 0.0 0.0 4.7 1.0 0.4 0.2 0.1 0.1 0.5 0.1 0.0 0.0 0.0 0.0 0.0 0.0 0.0 0.0 0.0 0.1 0.2 0.2 0.2 0.2 0.3 0.2 0.7 0.5 0.6 0.8 3.4 1.6 2.3 1.7 3.3 4.0 2.5
1.9 9.0 22.5 17.2 30.0 35.1 0.2 0.2 0.4 0.6 0.1 0.2 0.1 0.1 0.1 0.0 0.0 0.0 0.0 0.0 0.0 0.0 0.0 0.0 0.3 0.3 0.3 0.5 0.5 0.4 0.4 0.3 0.7 1.0 1.4 2.8 4.6 3.6 3.5 7.7 4.9 6.6 6.5 7.0
7.0 1.3 6.3 2.2 4.0 0.1 0.3 0.1 0.0 0.0 0.1 0.1 0.1 0.1 0.0 0.0 0.0 0.0 0.0 0.0 0.0 0.1 0.3 0.5 0.8 0.8 0.5 0.7 1.0 1.9 0.7 0.7 1.3 5.6 8.0 8.1 6.5 6.3 6.1 9.0 6.4 6.9 6.4 8.2
0.3 0.0 1.5 1.1 0.1 0.1 0.1 0.0 0.0 0.0 0.1 0.1 0.1 0.1 0.0 0.0 0.0 0.2 0.3 0.2 0.2 0.4 0.3 0.8 1.5 1.2 1.3 1.8 2.5 2.8 1.5 1.4 10.2 10.0 5.6 4.8 6.0 4.2 5.3 6.0 7.4 10.0 8.2 7.1
0.3 0.2 0.4 1.1 0.1 0.0 0.1 0.1 0.0 0.0 0.1 0.1 0.1 0.1 0.0 0.1 0.3 0.2 0.7 0.8 0.3 0.3 0.7 1.0 1.3 1.1 1.9 1.6 2.1 3.3 3.5 3.8 5.5 6.9 3.9 4.6 6.1 6.7 4.1 3.5 6.4 5.4 3.2 7.3
0.2 0.1 0.9 2.3 0.1 0.0 0.0 0.0 0.0 0.0 0.0 0.1 0.1 0.2 0.2 0.2 0.2 0.3 0.6 0.3 0.7 1.0 1.2 1.5 1.4 1.7 2.6 3.4 3.9 4.8 4.7 4.5 5.9 4.3 5.4 4.8 4.9 4.8 4.0 4.1 4.2 nan nan nan
Water_Equivalent
0.00 0.00 0.00 0.00 0.00 0.00 0.00 0.00 0.00 0.00 0.00 0.00 0.00 0.00 0.00 0.00 0.00 0.00 0.00 0.00 0.00 0.00 0.00 0.00 0.00 0.00 0.00 0.00 0.00 0.00 0.00 0.00 0.00 0.00 0.00 0.00 0.00 0.00 0.00 0.00 0.00 0.00 0.00 0.00
0.00 0.00 0.00 0.00 0.00 0.00 0.00 0.00 0.00 0.00 0.00 0.00 0.00 0.00 0.00 0.00 0.00 0.00 0.00 0.00 0.00 0.00 0.00 0.00 0.00 0.00 0.00 0.00 0.00 0.00 0.00 0.00 0.00 0.00 0.00 0.00 0.00 0.00 0.00 0.00 0.00 0.00 0.00 0.00
0.00 0.00 0.00 0.00 0.00 0.00 0.00 0.00 0.00 0.00 0.00 0.00 0.00 0.00 0.00 0.00 0.00 0.00 0.00 0.00 0.00 0.00 0.00 0.00 0.00 0.00 0.00 0.00 0.00 0.00 0.00 0.00 0.00 0.00 0.00 0.00 0.00 0.00 0.00 0.00 0.00 0.00 0.00 0.00
0.00 0.00 0.00 0.00 0.00 0.00 0.00 0.00 0.00 0.00 0.00 0.00 0.00 0.00 0.00 0.00 0.00 0.00 0.00 0.00 0.00 0.00 0.00 0.00 0.00 0.00 0.00 0.00 0.00 0.00 0.00 0.00 0.00 0.00 0.00 0.00 0.00 0.00 0.00 0.00 0.00 0.00 0.00 0.00
0.00 0.00 0.00 0.00 0.00 0.00 0.00 0.00 0.00 0.00 0.00 0.00 0.00 0.00 0.00 0.00 0.00 0.00 0.00 0.00 0.00 0.00 0.00 0.00 0.00 0.00 0.00 0.00 0.00 0.00 0.00 0.00 0.00 0.00 0.00 0.00 0.00 0.00 0.00 0.00 0.00 0.00 0.00 0.00
0.00 0.00 0.00 0.00 0.00 0.00 0.00 0.00 0.00 0.00 0.00 0.02 0.00 0.00 0.00 0.00 0.00 0.00 0.00 0.00 0.00 0.00 0.00 0.00 0.00 0.00 0.00 0.00 0.00 0.00 0.00 0.00 0.00 0.00 0.00 0.00 0.00 0.00 0.00 0.00 0.00 0.00 0.00 0.00
0.00 0.00 0.00 0.00 0.00 0.00 0.00 0.00 0.02 0.05 0.15 0.06 0.00 0.01 0.00 0.00 0.00 0.00 0.00 0.00 0.00 0.00 0.00 0.00 0.00 0.00 0.00 0.00 0.00 0.00 0.00 0.00 0.00 0.00 0.00 0.00 0.00 0.00 0.00 0.00 0.00 0.00 0.00 0.00
0.00 0.00 0.00 0.00 0.00 0.00 0.00 0.00 0.06 0.24 0.18 0.05 0.00 0.02 0.00 0.00 0.00 0.00 0.00 0.00 0.00 0.00 0.00 0.00 0.00 0.00 0.00 0.00 0.00 0.00 0.00 0.00 0.00 0.00 0.00 0.00 0.00 0.00 0.00 0.00 0.00 0.00 0.00 0.00
0.00 0.00 0.00 0.00 0.00 0.00 0.00 0.00 0.00 0.02 0.43 0.28 0.00 0.00 0.00 0.00 0.00 0.00 0.00 0.00 0.00 0.00 0.00 0.00 0.00 0.00 0.00 0.00 0.00 0.00 0.00 0.00 0.00 0.00 0.00 0.00 0.00 0.00 0.00 0.00 0.00 0.00 0.00 0.00
0.00 0.01 0.00 0.00 0.00 0.00 0.00 0.00 0.03 0.04 0.65 0.35 0.00 0.00 0.00 0.00 0.00 0.00 0.00 0.00 0.00 0.00 0.00 0.00 0.00 0.00 0.00 0.00 0.00 0.00 0.00 0.00 0.00 0.00 0.00 0.00 0.00 0.00 0.00 0.00 0.00 0.00 0.00 0.00
0.00 0.02 0.00 0.00 0.00 0.00 0.00 0.00 0.00 0.00 0.13 0.31 0.24 0.00 0.00 0.00 0.00 0.00 0.00 0.00 0.00 0.00 0.00 0.00 0.00 0.00 0.00 0.00 0.00 0.00 0.00 0.00 0.00 0.00 0.00 0.00 0.00 0.00 0.00 0.00 0.00 0.00 0.00 0.00
0.00 0.00 0.21 0.01 0.00 0.00 0.00 0.00 0.00 0.07 0.02 0.06 0.12 0.05 0.00 0.00 0.00 0.00 0.00 0.00 0.00 0.00 0.00 0.00 0.00 0.00 0.00 0.00 0.00 0.00 0.00 0.00 0.00 0.00 0.00 0.00 0.00 0.00 0.00 0.00 0.00 0.00 0.00 0.00
0.00 0.25 0.84 0.22 0.02 0.00 0.00 0.00 0.00 0.00 0.05 0.19 0.68 0.12 0.00 0.00 0.00 0.00 0.00 0.00 0.00 0.00 0.00 0.00 0.00 0.00 0.00 0.00 0.00 0.00 0.00 0.00 0.00 0.00 0.00 0.00 0.00 0.00 0.00 0.00 0.00 0.00 0.00 0.00
nan 0.17 0.07 0.17 0.01 0.00 0.02 0.01 0.00 0.00 0.70 0.14 0.12 0.01 0.00 0.00 0.00 0.00 0.00 0.00 0.00 0.00 0.00 0.00 0.00 0.00 0.00 0.00 0.00 0.00 0.00 0.00 0.00 0.00 0.00 0.00 0.00 0.00 0.00 0.00 0.00 0.00 0.00 0.00
0.00 1.37 0.04 0.01 0.02 0.03 0.08 0.03 0.00 0.00 0.00 0.13 0.00 0.00 0.00 0.00 0.00 0.00 0.00 0.00 0.00 0.00 0.00 0.00 0.00 0.00 0.00 0.00 0.00 0.00 0.00 0.00 0.00 0.00 0.00 0.00 0.00 0.00 0.00 0.00 0.00 0.01 0.01 0.00
0.00 1.76 0.14 0.80 0.04 0.03 0.24 0.00 0.00 0.00 0.00 0.00 0.00 0.00 0.00 0.00 0.00 0.00 0.00 0.00 0.00 0.00 0.00 0.00 0.00 0.00 0.00 0.00 0.00 0.00 0.00 0.00 0.00 0.00 0.00 0.00 0.00 0.02 0.02 0.02 0.03 0.01 0.01 0.02
0.09 0.72 1.80 2.77 0.12 0.18 1.64 0.03 0.00 0.00 0.00 0.00 0.04 0.00 0.00 0.00 0.00 0.00 0.00 0.00 0.00 0.00 0.00 0.00 0.00 0.00 0.00 0.00 0.00 0.00 0.00 0.00 0.00 0.01 0.02 0.02 0.03 0.04 0.03 0.02 0.03 0.03 0.03 0.03
1.29 1.50 1.56 3.74 1.90 4.92 0.27 0.00 0.00 0.00 0.00 0.00 0.00 0.00 0.00 0.00 0.00 0.00 0.00 0.00 0.00 0.00 0.00 0.00 0.00 0.00 0.00 0.00 0.00 0.00 0.00 0.01 0.02 0.04 0.07 0.05 0.05 0.13 0.03 0.03 0.03 0.05 0.04 0.06
0.01 0.26 3.05 5.85 3.18 0.19 0.01 0.00 0.00 0.01 0.01 0.00 0.00 0.00 0.00 0.00 0.00 0.00 0.00 0.00 0.00 0.00 0.00 0.00 0.00 0.00 0.00 0.00 0.00 0.01 0.02 0.02 0.02 0.02 0.04 0.05 0.10 0.21 0.07 0.29 0.05 0.06 0.18 0.14
0.09 0.04 0.76 4.37 4.38 2.81 0.03 0.03 0.01 0.01 0.32 0.17 0.02 0.01 0.01 0.01 0.21 0.00 0.00 0.00 0.00 0.00 0.00 0.00 0.00 0.00 0.00 0.01 0.02 0.02 0.03 0.03 0.03 0.03 0.03 0.04 0.09 0.38 0.30 0.10 0.23 0.25 0.29 0.33
1.15 2.61 3.61 2.93 4.19 1.51 0.03 0.01 0.00 0.68 0.20 0.10 0.06 0.03 0.02 0.14 0.05 0.00 0.00 0.00 0.00 0.00 0.00 0.00 0.00 0.01 0.02 0.03 0.04 0.04 0.04 0.04 0.04 0.09 0.07 0.08 0.11 0.39 0.21 0.30 0.25 0.43 0.51 0.32
0.24 1.19 3.07 2.60 4.34 4.48 0.05 0.05 0.07 0.13 0.03 0.05 0.02 0.02 0.04 0.00 0.00 0.00 0.00 0.00 0.00 0.00 0.00 0.01 0.06 0.04 0.05 0.07 0.07 0.06 0.05 0.05 0.09 0.12 0.16 0.31 0.52 0.45 0.45 0.93 0.61 0.81 0.78 0.83
0.94 0.25 1.05 0.43 0.72 0.03 0.08 0.04 0.01 0.00 0.02 0.02 0.02 0.01 0.00 0.00 0.00 0.00 0.00 0.00 0.00 0.03 0.05 0.08 0.11 0.09 0.06 0.09 0.12 0.21 0.09 0.09 0.14 0.59 0.87 0.89 0.78 0.76 0.74 1.13 0.72 0.94 0.85 1.06
0.05 0.00 0.31 0.20 0.02 0.02 0.02 0.00 0.00 0.00 0.02 0.02 0.02 0.02 0.01 0.00 0.01 0.03 0.05 0.03 0.03 0.05 0.04 0.10 0.16 0.14 0.13 0.20 0.25 0.30 0.15 0.14 1.13 1.07 0.56 0.47 0.61 0.51 0.60 0.81 0.99 1.40 1.07 0.89
0.07 0.06 0.10 0.19 0.01 0.01 0.03 0.02 0.00 0.00 0.02 0.03 0.03 0.03 0.00 0.02 0.06 0.04 0.11 0.12 0.04 0.04 0.08 0.10 0.14 0.12 0.18 0.15 0.20 0.34 0.31 0.38 0.62 0.68 0.35 0.49 0.71 0.81 0.46 0.40 0.70 0.61 0.39 0.96
0.04 0.02 0.15 0.37 0.01 0.01 0.01 0.00 0.00 0.00 0.01 0.02 0.03 0.03 0.04 0.04 0.04 0.05 0.09 0.05 0.09 0.11 0.12 0.15 0.12 0.14 0.19 0.26 0.31 0.44 0.55 0.55 0.62 0.38 0.56 0.54 0.54 0.48 0.42 0.43 0.45 nan nan nan
SL_Ratio
nan nan nan nan nan nan nan nan nan nan nan nan nan nan nan nan nan nan nan nan nan nan nan nan nan nan nan nan nan nan nan nan nan nan nan nan nan nan nan nan nan nan nan nan
nan nan nan nan nan nan nan nan nan nan nan nan nan nan nan nan nan nan nan nan nan nan nan nan nan nan nan nan nan nan nan nan nan nan nan nan nan nan nan nan nan nan nan nan
nan nan nan nan nan nan nan nan nan nan nan nan nan nan nan nan nan nan nan nan nan nan nan nan nan nan nan nan nan nan nan nan nan nan nan nan nan nan nan nan nan nan nan nan
nan nan nan nan nan nan nan nan nan nan nan nan nan nan nan nan nan nan nan nan nan nan nan nan nan nan nan nan nan nan nan nan nan nan nan nan nan nan nan nan nan nan nan nan
nan nan nan nan nan nan nan nan nan nan nan nan nan nan nan nan nan nan nan nan nan nan nan nan nan nan nan nan nan nan nan nan nan nan nan nan nan nan nan nan nan nan nan nan
nan nan nan nan nan nan nan nan nan nan nan 3.6 nan nan nan nan nan nan nan nan nan nan nan nan nan nan nan nan nan nan nan nan nan nan nan nan nan nan nan nan nan nan nan nan
nan nan nan nan nan nan nan nan 3.8 3.6 3.8 3.6 nan 3.5 nan nan nan nan nan nan nan nan nan nan nan nan nan nan nan nan nan nan nan nan nan nan nan nan nan nan nan nan nan nan
nan nan nan nan nan nan nan nan 3.4 4.8 4.1 3.2 4.0 3.7 nan nan nan nan nan nan nan nan nan nan nan nan nan nan nan nan nan nan nan nan nan nan nan nan nan nan nan nan nan nan
nan 3.3 nan nan nan nan nan nan nan 3.7 5.4 4.1 nan nan nan nan nan nan nan nan nan nan nan nan nan nan nan nan nan nan nan nan nan nan nan nan nan nan nan nan nan nan nan nan
nan 3.4 nan nan nan nan nan nan 3.8 3.6 5.4 5.8 nan nan nan nan nan nan nan nan nan nan nan nan nan nan nan nan nan nan nan nan nan nan nan nan nan nan nan nan nan nan nan nan
nan 3.5 6.0 nan nan nan nan nan nan nan 3.5 4.6 4.7 4.0 nan nan nan nan nan nan nan nan nan nan nan nan nan nan nan nan nan nan nan nan nan nan nan nan nan nan nan nan nan nan
nan 0.0 3.6 5.6 nan nan nan nan nan 3.3 4.3 3.5 3.4 4.9 nan nan nan nan nan nan nan nan nan nan nan nan nan nan nan nan nan nan nan nan nan nan nan nan nan nan nan nan nan nan
nan 3.6 4.2 4.2 5.3 nan nan nan nan nan 3.2 4.5 4.8 4.4 nan nan nan nan nan nan nan nan nan nan nan nan nan nan nan nan nan nan nan nan nan nan nan nan nan nan nan nan nan nan
nan 3.6 3.2 3.6 4.0 nan 3.8 3.1 2.7 3.0 4.3 3.4 3.7 2.6 nan nan nan nan nan nan nan nan nan nan nan nan nan nan nan nan nan nan nan nan nan nan nan nan nan nan nan nan nan nan
nan 3.5 3.6 2.4 3.4 3.2 4.0 3.2 0.0 nan nan 4.4 nan nan nan nan nan nan nan nan nan nan nan nan nan nan nan nan nan nan nan nan nan nan nan nan nan nan nan 2.5 2.7 3.1 3.2 3.0
nan 3.7 3.7 4.3 3.8 3.9 4.7 2.7 nan nan nan nan nan nan nan nan nan nan nan nan nan nan nan nan nan nan nan nan nan nan nan nan nan nan nan nan 3.1 3.4 3.3 3.4 3.7 3.9 4.1 4.2
3.3 3.4 3.9 5.6 4.6 4.9 6.7 3.1 nan nan nan nan 3.5 nan nan nan nan nan nan nan nan nan nan nan nan nan nan nan nan nan nan nan 2.9 3.5 3.9 3.9 4.1 4.4 3.9 4.2 4.8 4.8 4.8 4.7
2.7 3.0 3.4 5.0 4.5 8.1 5.6 nan nan nan nan nan nan nan nan nan nan nan nan nan nan nan nan nan nan nan nan nan nan nan 2.7 3.5 3.8 5.0 5.4 5.3 5.3 6.2 4.9 5.3 5.3 5.4 5.2 5.7
2.4 3.2 5.6 6.2 6.5 4.5 2.9 nan 3.6 3.2 3.3 nan nan nan nan nan nan nan nan nan nan nan nan nan nan nan nan nan nan 3.9 4.5 4.5 4.8 5.1 5.4 5.6 6.3 7.0 6.2 7.3 5.9 5.6 6.3 6.1
3.1 2.7 3.5 5.7 6.4 8.3 4.5 4.2 3.0 2.7 4.7 4.0 2.8 2.8 2.9 3.3 4.0 nan nan nan nan nan nan nan nan nan nan 3.6 3.9 4.7 5.8 6.0 6.0 5.7 5.5 5.9 6.8 8.3 8.4 6.6 7.1 6.4 6.3 6.9
6.6 5.4 6.9 6.3 6.3 5.8 4.1 4.3 nan 6.9 5.0 4.1 3.7 3.3 3.3 3.5 2.6 nan nan nan nan nan nan nan nan 3.8 4.0 4.9 5.6 5.8 5.9 6.9 6.0 7.8 7.8 7.8 7.7 8.7 7.8 7.5 6.8 7.7 7.9 7.7
7.9 7.6 7.3 6.6 6.9 7.8 3.4 3.3 5.6 4.4 3.5 3.8 3.6 3.7 4.0 3.8 0.0 0.0 nan nan nan nan nan 4.7 6.1 6.4 6.1 6.6 6.5 7.0 7.4 6.8 7.9 8.0 8.4 8.9 8.8 8.1 7.9 8.3 8.1 8.1 8.4 8.4
7.5 5.1 6.0 5.2 5.7 3.4 3.8 3.4 2.9 0.0 3.0 3.5 3.8 3.6 nan nan 0.0 5.0 0.0 0.0 nan 4.5 5.6 6.9 7.3 8.3 8.1 7.8 8.0 9.3 8.1 8.5 9.2 9.5 9.2 9.2 8.3 8.2 8.3 7.9 8.9 7.4 7.6 7.7
5.3 2.5 4.9 5.7 4.5 4.1 3.9 3.8 nan 10.0 3.4 3.4 3.3 3.7 3.1 3.8 3.7 4.7 5.1 4.7 5.4 6.8 7.5 8.3 9.1 9.1 9.6 9.0 9.7 9.4 9.7 10.0 9.1 9.3 10.0 10.1 9.9 8.3 8.8 7.4 7.4 7.2 7.6 7.9
4.0 3.7 4.3 5.6 4.9 4.8 4.4 4.1 10.0 3.3 3.6 3.7 3.7 3.8 0.0 3.9 5.2 5.1 6.3 6.8 6.1 7.3 9.4 9.7 9.3 9.6 10.4 10.6 10.9 9.7 11.2 9.9 8.9 10.1 11.1 9.4 8.6 8.3 8.9 8.6 9.1 8.8 8.4 7.6
5.3 6.0 5.8 6.3 4.1 3.9 4.3 nan nan 2.7 3.8 3.9 4.1 5.0 5.1 4.9 5.2 6.1 6.8 6.8 7.8 8.9 10.0 10.3 11.0 12.5 14.1 13.2 12.6 10.9 8.6 8.1 9.6 11.3 9.6 8.8 9.1 9.9 9.5 9.5 9.4 nan nan nan